| time (UTC) | temp F | wind direction | speed MPH | gust MPH | rain 1hr in | rain 24hr in | rain mn in | humidity % | barometer mb |
| 20260508213608 | 44 | 237 | 14.0 | 21.0 | 0.00 | 0.01 | 0.01 | 76 | 1015.1 |
| 20260508212605 | 44 | 244 | 15.0 | 22.0 | 0.00 | 0.01 | 0.01 | 77 | 1014.8 |
| 20260508211622 | 44 | 238 | 14.0 | 20.0 | 0.00 | 0.01 | 0.01 | 75 | 1014.7 |
| 20260508210559 | 44 | 244 | 18.0 | 25.0 | 0.00 | 0.01 | 0.01 | 74 | 1014.6 |
| 20260508205616 | 45 | 239 | 16.0 | 23.0 | 0.00 | 0.01 | 0.01 | 74 | 1014.5 |
| 20260508204553 | 44 | 228 | 15.0 | 22.0 | 0.00 | 0.01 | 0.01 | 75 | 1014.5 |
| 20260508203549 | 44 | 248 | 12.0 | 20.0 | 0.00 | 0.01 | 0.01 | 76 | 1014.4 |
| 20260508202546 | 45 | 248 | 15.0 | 25.0 | 0.00 | 0.01 | 0.01 | 74 | 1014.1 |
| 20260508201543 | 45 | 240 | 18.0 | 27.0 | 0.00 | 0.01 | 0.01 | 73 | 1013.8 |
| 20260508200540 | 45 | 229 | 18.0 | 27.0 | 0.00 | 0.01 | 0.01 | 75 | 1013.7 |
| 20260508195537 | 45 | 225 | 14.0 | 20.0 | 0.00 | 0.01 | 0.01 | 75 | 1013.6 |
| 20260508194534 | 45 | 225 | 18.0 | 25.0 | 0.00 | 0.01 | 0.01 | 73 | 1013.4 |
| 20260508193531 | 45 | 237 | 19.0 | 27.0 | 0.00 | 0.01 | 0.01 | 72 | 1013.2 |
| 20260508192527 | 45 | 240 | 19.0 | 27.0 | 0.00 | 0.01 | 0.01 | 71 | 1013.0 |
| 20260508191524 | 46 | 240 | 19.0 | 27.0 | 0.00 | 0.01 | 0.01 | 69 | 1013.0 |
| 20260508190521 | 46 | 245 | 18.0 | 27.0 | 0.00 | 0.01 | 0.01 | 73 | 1012.7 |
| 20260508185518 | 46 | 221 | 17.0 | 24.0 | 0.00 | 0.01 | 0.01 | 76 | 1012.6 |
| 20260508184615 | 46 | 222 | 16.0 | 22.0 | 0.00 | 0.01 | 0.01 | 76 | 1012.6 |
| 20260508183632 | 46 | 237 | 23.0 | 34.0 | 0.00 | 0.01 | 0.01 | 74 | 1012.4 |
| 20260508182608 | 47 | 225 | 20.0 | 27.0 | 0.00 | 0.01 | 0.01 | 74 | 1012.2 |
| 20260508181605 | 47 | 229 | 18.0 | 25.0 | 0.00 | 0.01 | 0.01 | 74 | 1012.3 |
| 20260508180602 | 47 | 225 | 18.0 | 23.0 | 0.00 | 0.01 | 0.01 | 74 | 1012.1 |
| 20260508175559 | 47 | 221 | 20.0 | 30.0 | 0.00 | 0.01 | 0.01 | 74 | 1011.9 |
| 20260508174636 | 48 | 225 | 21.0 | 27.0 | 0.00 | 0.01 | 0.01 | 73 | 1011.8 |
| 20260508173553 | 48 | 233 | 19.0 | 25.0 | 0.00 | 0.01 | 0.01 | 70 | 1011.6 |
| 20260508172610 | 48 | 218 | 18.0 | 25.0 | 0.00 | 0.01 | 0.01 | 72 | 1011.5 |
| 20260508171547 | 50 | 244 | 20.0 | 29.0 | 0.00 | 0.01 | 0.01 | 68 | 1011.2 |
| 20260508170543 | 49 | 233 | 19.0 | 27.0 | 0.00 | 0.01 | 0.01 | 70 | 1011.2 |
| 20260508165540 | 49 | 218 | 24.0 | 32.0 | 0.00 | 0.01 | 0.01 | 70 | 1011.0 |
| 20260508164557 | 49 | 237 | 24.0 | 34.0 | 0.00 | 0.01 | 0.01 | 70 | 1011.0 |
| 20260508163534 | 50 | 237 | 20.0 | 27.0 | 0.00 | 0.01 | 0.01 | 68 | 1011.0 |
| 20260508162531 | 49 | 229 | 24.0 | 32.0 | 0.00 | 0.01 | 0.01 | 69 | 1010.9 |
| 20260508161527 | 49 | 229 | 24.0 | 32.0 | 0.00 | 0.01 | 0.01 | 69 | 1010.7 |
| 20260508160524 | 50 | 228 | 22.0 | 30.0 | 0.00 | 0.01 | 0.01 | 70 | 1010.6 |
| 20260508155521 | 50 | 218 | 22.0 | 30.0 | 0.00 | 0.01 | 0.01 | 71 | 1010.6 |
| 20260508154518 | 51 | 232 | 22.0 | 31.0 | 0.00 | 0.01 | 0.01 | 68 | 1010.5 |
| 20260508153615 | 51 | 214 | 25.0 | 34.0 | 0.00 | 0.01 | 0.01 | 68 | 1010.4 |
| 20260508152612 | 50 | 218 | 26.0 | 36.0 | 0.00 | 0.01 | 0.01 | 72 | 1010.3 |
| 20260508151608 | 50 | 210 | 24.0 | 34.0 | 0.00 | 0.01 | 0.01 | 71 | 1010.4 |
| 20260508150606 | 50 | 218 | 22.0 | 29.0 | 0.00 | 0.01 | 0.01 | 73 | 1010.3 |
| 20260508145642 | 50 | 218 | 21.0 | 27.0 | 0.00 | 0.01 | 0.01 | 72 | 1010.2 |
| 20260508144559 | 52 | 197 | 22.0 | 34.0 | 0.00 | 0.01 | 0.01 | 68 | 1010.1 |
| 20260508143556 | 51 | 222 | 20.0 | 27.0 | 0.00 | 0.01 | 0.01 | 69 | 1010.2 |
| 20260508142553 | 51 | 206 | 23.0 | 30.0 | 0.00 | 0.01 | 0.01 | 70 | 1010.1 |
| 20260508141550 | 51 | 195 | 23.0 | 32.0 | 0.00 | 0.01 | 0.01 | 70 | 1010.2 |
| 20260508140607 | 50 | 225 | 21.0 | 30.0 | 0.00 | 0.01 | 0.01 | 76 | 1010.2 |
| 20260508135544 | 50 | 218 | 25.0 | 34.0 | 0.00 | 0.01 | 0.01 | 75 | 1009.9 |
| 20260508134541 | 51 | 195 | 27.0 | 38.0 | 0.00 | 0.01 | 0.01 | 73 | 1009.8 |
| 20260508133537 | 52 | 195 | 25.0 | 34.0 | 0.00 | 0.01 | 0.01 | 72 | 1009.6 |
| 20260508132534 | 52 | 187 | 24.0 | 34.0 | 0.00 | 0.01 | 0.01 | 70 | 1009.8 |
| 20260508131531 | 51 | 199 | 26.0 | 36.0 | 0.00 | 0.01 | 0.01 | 70 | 1009.7 |
| 20260508130528 | 52 | 191 | 26.0 | 36.0 | 0.00 | 0.01 | 0.01 | 68 | 1009.5 |
| 20260508125524 | 52 | 198 | 24.0 | 34.0 | 0.00 | 0.01 | 0.01 | 68 | 1009.5 |
| 20260508124541 | 51 | 221 | 23.0 | 30.0 | 0.00 | 0.01 | 0.01 | 71 | 1009.5 |
| 20260508123518 | 51 | 210 | 26.0 | 34.0 | 0.00 | 0.01 | 0.01 | 69 | 1009.6 |
| 20260508122635 | 51 | 203 | 25.0 | 31.0 | 0.00 | 0.01 | 0.01 | 69 | 1009.6 |
| 20260508121612 | 52 | 195 | 25.0 | 32.0 | 0.00 | 0.01 | 0.01 | 68 | 1009.5 |
| 20260508120609 | 52 | 192 | 22.0 | 30.0 | 0.00 | 0.01 | 0.01 | 69 | 1009.5 |
| 20260508115606 | 51 | 191 | 25.0 | 31.0 | 0.00 | 0.01 | 0.01 | 69 | 1009.5 |
| 20260508114602 | 51 | 198 | 23.0 | 31.0 | 0.00 | 0.01 | 0.01 | 71 | 1009.4 |
| 20260508113559 | 51 | 194 | 22.0 | 29.0 | 0.00 | 0.01 | 0.01 | 69 | 1009.4 |
| 20260508112556 | 51 | 187 | 25.0 | 34.0 | 0.00 | 0.01 | 0.01 | 67 | 1009.0 |
| 20260508111553 | 52 | 184 | 25.0 | 32.0 | 0.00 | 0.01 | 0.01 | 67 | 1009.1 |
| 20260508110550 | 52 | 202 | 22.0 | 30.0 | 0.00 | 0.01 | 0.01 | 67 | 1009.0 |
| 20260508105547 | 52 | 198 | 23.0 | 29.0 | 0.00 | 0.01 | 0.01 | 67 | 1009.0 |
| 20260508104544 | 52 | 198 | 23.0 | 32.0 | 0.00 | 0.01 | 0.01 | 67 | 1009.0 |
| 20260508103540 | 52 | 195 | 22.0 | 27.0 | 0.00 | 0.01 | 0.01 | 66 | 1009.0 |
| 20260508102537 | 51 | 204 | 22.0 | 29.0 | 0.00 | 0.01 | 0.01 | 67 | 1008.9 |
| 20260508101535 | 51 | 206 | 21.0 | 29.0 | 0.00 | 0.01 | 0.01 | 69 | 1009.0 |
| 20260508100531 | 52 | 207 | 19.0 | 25.0 | 0.00 | 0.01 | 0.01 | 68 | 1009.0 |
| 20260508095528 | 51 | 213 | 22.0 | 27.0 | 0.00 | 0.01 | 0.01 | 69 | 1008.8 |
| 20260508094525 | 50 | 199 | 21.0 | 29.0 | 0.00 | 0.01 | 0.01 | 71 | 1008.9 |
| 20260508093521 | 50 | 218 | 22.0 | 27.0 | 0.00 | 0.01 | 0.01 | 70 | 1008.8 |
| 20260508092519 | 51 | 195 | 22.0 | 31.0 | 0.00 | 0.01 | 0.01 | 70 | 1008.7 |
| 20260508091515 | 51 | 203 | 21.0 | 27.0 | 0.00 | 0.01 | 0.01 | 72 | 1008.5 |
| 20260508090612 | 51 | 196 | 18.0 | 22.0 | 0.00 | 0.01 | 0.01 | 75 | 1008.4 |
| 20260508085629 | 50 | 195 | 20.0 | 27.0 | 0.00 | 0.01 | 0.01 | 73 | 1008.3 |
| 20260508084606 | 50 | 201 | 19.0 | 25.0 | 0.00 | 0.01 | 0.01 | 75 | 1008.3 |
| 20260508083623 | 50 | 194 | 20.0 | 24.0 | 0.00 | 0.01 | 0.01 | 76 | 1008.2 |
| 20260508082600 | 49 | 195 | 21.0 | 27.0 | 0.00 | 0.01 | 0.01 | 78 | 1007.9 |
| 20260508081557 | 50 | 207 | 19.0 | 24.0 | 0.00 | 0.01 | 0.01 | 81 | 1007.9 |
| 20260508080553 | 49 | 202 | 17.0 | 23.0 | 0.00 | 0.01 | 0.01 | 79 | 1007.8 |
| 20260508075550 | 49 | 199 | 19.0 | 24.0 | 0.00 | 0.01 | 0.01 | 81 | 1007.7 |
| 20260508074547 | 49 | 184 | 18.0 | 24.0 | 0.00 | 0.01 | 0.01 | 82 | 1007.6 |
| 20260508073544 | 49 | 199 | 20.0 | 27.0 | 0.00 | 0.01 | 0.01 | 83 | 1007.5 |
| 20260508072541 | 49 | 199 | 20.0 | 27.0 | 0.00 | 0.01 | 0.01 | 82 | 1007.3 |
| 20260508071538 | 49 | 203 | 19.0 | 24.0 | 0.00 | 0.01 | 0.01 | 85 | 1007.1 |
| 20260508070535 | 49 | 187 | 19.0 | 27.0 | 0.00 | 0.01 | 0.01 | 85 | 1007.2 |
| 20260508065532 | 49 | 195 | 18.0 | 24.0 | 0.00 | 0.01 | 0.01 | 86 | 1007.1 |
| 20260508064528 | 49 | 173 | 19.0 | 24.0 | 0.01 | 0.01 | 0.01 | 89 | 1007.0 |
| 20260508063525 | 48 | 168 | 14.0 | 18.0 | 0.01 | 0.01 | 0.01 | 90 | 1007.0 |
| 20260508062522 | 48 | 172 | 15.0 | 18.0 | 0.01 | 0.01 | 0.01 | 91 | 1006.9 |
| 20260508061538 | 48 | 162 | 14.0 | 17.0 | 0.01 | 0.01 | 0.01 | 91 | 1006.7 |
| 20260508060515 | 48 | 172 | 14.0 | 18.0 | 0.01 | 0.01 | 0.01 | 91 | 1006.8 |
| 20260508055612 | 47 | 173 | 14.0 | 20.0 | 0.01 | 0.01 | 0.01 | 91 | 1006.8 |
| 20260508054609 | 47 | 176 | 15.0 | 18.0 | 0.00 | 0.00 | 0.00 | 91 | 1006.7 |
| 20260508053607 | 47 | 173 | 16.0 | 22.0 | 0.00 | 0.00 | 0.00 | 91 | 1006.5 |
| 20260508052603 | 47 | 173 | 14.0 | 18.0 | 0.00 | 0.00 | 0.00 | 91 | 1006.5 |
| 20260508051600 | 47 | 178 | 15.0 | 21.0 | 0.00 | 0.00 | 0.00 | 91 | 1006.5 |
| 20260508050556 | 47 | 172 | 15.0 | 20.0 | 0.00 | 0.00 | 0.00 | 91 | 1006.3 |
| 20260508045553 | 47 | 160 | 15.0 | 21.0 | 0.00 | 0.00 | 0.00 | 91 | 1006.4 |
| 20260508044550 | 47 | 180 | 16.0 | 20.0 | 0.00 | 0.00 | 0.00 | 91 | 1006.3 |
| 20260508043547 | 47 | 169 | 15.0 | 18.0 | 0.00 | 0.00 | 0.00 | 92 | 1006.4 |
| 20260508042544 | 47 | 180 | 14.0 | 21.0 | 0.00 | 0.00 | 0.00 | 92 | 1006.5 |
| 20260508041601 | 47 | 184 | 15.0 | 18.0 | 0.00 | 0.00 | 0.00 | 91 | 1006.4 |
| 20260508040538 | 47 | 173 | 15.0 | 21.0 | 0.00 | 0.00 | 0.00 | 91 | 1006.4 |
| 20260508035535 | 47 | 166 | 17.0 | 22.0 | 0.00 | 0.00 | 0.00 | 91 | 1006.3 |
| 20260508034532 | 47 | 169 | 16.0 | 23.0 | 0.00 | 0.00 | 0.00 | 92 | 1006.4 |
| 20260508033528 | 47 | 161 | 15.0 | 21.0 | 0.00 | 0.00 | 0.00 | 92 | 1006.4 |
| 20260508032525 | 47 | 175 | 15.0 | 21.0 | 0.00 | 0.00 | 0.00 | 92 | 1006.4 |
| 20260508031542 | 47 | 183 | 16.0 | 23.0 | 0.00 | 0.00 | 0.00 | 92 | 1006.5 |
| 20260508030519 | 47 | 156 | 16.0 | 21.0 | 0.00 | 0.00 | 0.00 | 92 | 1006.4 |
| 20260508025515 | 47 | 149 | 17.0 | 23.0 | 0.00 | 0.00 | 0.00 | 92 | 1006.6 |
| 20260508024613 | 47 | 151 | 17.0 | 23.0 | 0.00 | 0.00 | 0.00 | 91 | 1006.6 |
| 20260508023629 | 47 | 157 | 17.0 | 23.0 | 0.00 | 0.00 | 0.00 | 91 | 1006.6 |
| 20260508022606 | 47 | 156 | 17.0 | 24.0 | 0.00 | 0.00 | 0.00 | 91 | 1006.5 |
| 20260508021623 | 47 | 154 | 18.0 | 24.0 | 0.00 | 0.00 | 0.00 | 91 | 1006.7 |
| 20260508020600 | 47 | 158 | 20.0 | 29.0 | 0.00 | 0.00 | 0.00 | 91 | 1006.8 |
| 20260508015617 | 47 | 158 | 19.0 | 27.0 | 0.00 | 0.00 | 0.00 | 91 | 1006.7 |
| 20260508014554 | 47 | 146 | 20.0 | 27.0 | 0.00 | 0.00 | 0.00 | 91 | 1006.8 |
| 20260508013551 | 47 | 158 | 19.0 | 31.0 | 0.00 | 0.00 | 0.00 | 91 | 1006.9 |
| 20260508012548 | 47 | 161 | 21.0 | 30.0 | 0.00 | 0.00 | 0.00 | 90 | 1006.9 |
| 20260508011544 | 47 | 158 | 21.0 | 29.0 | 0.00 | 0.00 | 0.00 | 90 | 1006.9 |
| 20260508010622 | 47 | 154 | 20.0 | 27.0 | 0.00 | 0.00 | 0.00 | 90 | 1007.0 |
| 20260508005538 | 47 | 143 | 19.0 | 27.0 | 0.00 | 0.00 | 0.00 | 90 | 1007.0 |
| 20260508004535 | 47 | 176 | 22.0 | 31.0 | 0.00 | 0.00 | 0.00 | 90 | 1006.9 |
| 20260508003632 | 47 | 173 | 22.0 | 29.0 | 0.00 | 0.00 | 0.00 | 89 | 1007.1 |
| 20260508002529 | 47 | 154 | 20.0 | 31.0 | 0.00 | 0.00 | 0.00 | 89 | 1007.3 |
| 20260508001526 | 47 | 153 | 22.0 | 34.0 | 0.00 | 0.00 | 0.00 | 90 | 1007.1 |
| 20260508000522 | 47 | 135 | 19.0 | 22.0 | 0.00 | 0.00 | 0.00 | 89 | 1007.2 |
| 20260507235521 | 47 | 154 | 22.0 | 29.0 | 0.00 | 0.00 | 0.00 | 89 | 1007.3 |
| 20260507234516 | 47 | 172 | 19.0 | 27.0 | 0.00 | 0.00 | 0.00 | 89 | 1007.4 |
| 20260507233613 | 47 | 147 | 20.0 | 27.0 | 0.00 | 0.00 | 0.00 | 88 | 1007.5 |
| 20260507232612 | 47 | 154 | 19.0 | 27.0 | 0.00 | 0.00 | 0.00 | 88 | 1007.6 |
| 20260507231626 | 47 | 160 | 19.0 | 30.0 | 0.00 | 0.00 | 0.00 | 88 | 1007.7 |
| 20260507230603 | 47 | 157 | 19.0 | 27.0 | 0.00 | 0.00 | 0.00 | 88 | 1007.7 |
| 20260507225600 | 47 | 177 | 18.0 | 27.0 | 0.00 | 0.00 | 0.00 | 88 | 1007.8 |
| 20260507224557 | 47 | 176 | 21.0 | 27.0 | 0.00 | 0.00 | 0.00 | 87 | 1007.8 |
| 20260507223554 | 47 | 142 | 21.0 | 27.0 | 0.00 | 0.00 | 0.00 | 87 | 1007.9 |
| 20260507222611 | 47 | 160 | 21.0 | 29.0 | 0.00 | 0.00 | 0.00 | 87 | 1008.0 |
| 20260507221548 | 46 | 143 | 22.0 | 30.0 | 0.00 | 0.00 | 0.00 | 86 | 1008.1 |
| 20260507220545 | 46 | 146 | 22.0 | 29.0 | 0.00 | 0.00 | 0.00 | 86 | 1007.9 |
| 20260507215541 | 46 | 158 | 20.0 | 30.0 | 0.00 | 0.00 | 0.00 | 86 | 1008.1 |
| 20260507214538 | 46 | 161 | 22.0 | 29.0 | 0.00 | 0.00 | 0.00 | 86 | 1008.2 |